Hourly Data Report for October 06, 2016

All times are specified in Local Standard Time (LST). Add 1 hour to adjust for Daylight Saving Time where and when it is observed.

POND INLET A
NUNAVUT

72°41'22.000" N
77°58'08.000" W
61.60 m
2403206
71095
YIO

Download Data

Hourly Data (October 2016)
Hourly Data Report for October 6, 2016
Temp Definition
°C
Dew Point Temp Definition
°C
Rel Hum Definition
%
Wind Dir Definition
10's deg

Wind Spd Definition
km/h
Visibility Definition
km
Stn Press Definition
kPa
Hmdx Definition


Wind Chill Definition


Weather Definition


TIME
00:00 Legend Double Dagger -5.7 -7.9 85 16 22 16.1 100.47   -13 LegendNANA
01:00 Legend Double Dagger -5.4 -7.9 83 16 21 16.1 100.45   -12 LegendNANA
02:00 Legend Double Dagger -5.2 -7.7 83 15 17 16.1 100.44   -11 LegendNANA
03:00 Legend Double Dagger -5.0 -7.1 85 15 17 16.1 100.41   -11 LegendNANA
04:00 Legend Double Dagger -4.7 -7.0 84 16 17 16.1 100.40   -11 LegendNANA
05:00 Legend Double Dagger -4.6 -6.8 85 17 17 16.1 100.38   -10 LegendNANA
06:00 Legend Double Dagger -4.5 -6.5 86 16 17 16.1 100.39   -10 LegendNANA
07:00 Legend Double Dagger -4.4 -6.4 86 16 15 16.1 100.35   -10 LegendNANA
08:00 Legend Double Dagger -4.3 -6.2 87 16 13 16.1 100.33   -9 LegendNANA
09:00 Legend Double Dagger -4.2 -6.0 87 15 9 16.1 100.32   -8 LegendNANA
10:00 Legend Double Dagger -3.9 -5.8 87 15 15 16.1 100.28   -9 LegendNANA
11:00 Legend Double Dagger -3.5 -5.8 84 14 15 16.1 100.28   -9 LegendNANA
12:00 Legend Double Dagger -3.2 -5.5 84 17 11 16.1 100.28   -7 LegendNANA
13:00 Legend Double Dagger -3.1 -5.4 84 15 13 16.1 100.29   -8 LegendNANA
14:00 Legend Double Dagger -3.0 -4.9 87 16 9 16.1 100.32   -7 LegendNANA
15:00 Legend Double Dagger -3.0 -4.3 91 17 4 16.1 100.36   -5 LegendNANA
16:00 Legend Double Dagger -3.0 -4.3 91   0 16.1 100.36     LegendNANA
17:00 Legend Double Dagger -3.0 -3.6 96   0 14.5 100.36     LegendNANA
18:00 Legend Double Dagger -3.2 -3.6 97 LegendMM 4 12.9 100.38   -5 LegendNANA
19:00 Legend Double Dagger -3.4 -3.8 97   0 16.1 100.39     LegendNANA
20:00 Legend Double Dagger -3.0 -3.3 98 1 4 4.8 100.41   -5 Fog
21:00 Legend Double Dagger -3.0 -3.1 99   0 12.9 100.43     LegendNANA
22:00 Legend Double Dagger -3.0 -3.4 97 LegendMM 4 16.1 100.44   -5 LegendNANA
23:00 Legend Double Dagger -2.6 -3.2 96 17 11 4.8 100.44   -7 Snow

Notes on Data Quality.

Legend

  • E = Estimated
  • M = Missing
  • NA = Not Available
  • ‡ = Partner data that is not subject to review by the National Climate Archives
Date modified: